{"data":{"norad_id":38833,"intl_designator":"2012-053A","name":"GPS BIIF-3  (PRN 24)","alt_names":[],"object_type":"PAYLOAD","status":"ACTIVE","operator":null,"country":"US","launch_date":"2012-10-04","launch_site_code":"AFETR","launch_vehicle":null,"mission":null,"orbit_class":"UNKNOWN","rcs_meters":5.4748,"size_class":null,"mass_kg":null,"dimensions":null,"purposes":["earth_obs","nav"],"wikipedia_slug":null,"has_3d_model":false,"image_url":null,"decayed_at":null,"tle_current":{"epoch":"2026-05-24T09:14:28.298400Z","epoch_age_seconds":124182,"freshness":"FRESH","line1":"1 38833U 12053A   26144.38504975  .00000083  00000+0  00000+0 0  9993","line2":"2 38833  53.5811 144.5742 0179096  65.4338 296.4391  2.00567085 98967","mean_motion":2.00567085,"eccentricity":0.0179096,"inclination_deg":53.5811,"raan_deg":144.5742,"arg_perigee_deg":65.4338,"mean_anomaly_deg":296.4391,"bstar":0,"rev_number":9896,"period_min":717.96426617059,"perigee_km":19706.223798135,"apogee_km":20657.583200793,"semimajor_km":26560.040499464,"source":"CELESTRAK","updated_at":"2026-05-25T13:38:23.731361Z"}}}